Simultaneous Nadir Overpasses (SNOs) Predictions

Prediction of SNOs between TERRA and METOP-C Satellite Orbit:

Table of predicted SNOs for the next 14.0 days since TLE Epoch: 8/17/2019
Index Date (TERRA) Time (TERRA) Lat,Lon (TERRA) SZA (TERRA ) Date (METOP-C) Time (METOP-C) Lat,Lon (METOP-C) SZA (METOP-C ) Distance(km) Time Diff (sec)
1 08/18/2019 10:16:59 -81.30,-107.10 109.08 08/18/2019 10:16:08 -81.30,-107.24 109.13 2.35 51
2 08/18/2019 11:06:25 81.31, 60.70 70.96 08/18/2019 11:06:48 81.31, 60.65 70.96 0.92 23
3 08/21/2019 05:51:13 -81.31, -40.49 108.13 08/21/2019 05:50:30 -81.30, -40.65 108.17 2.97 43
4 08/21/2019 06:40:40 81.30, 126.91 71.86 08/21/2019 06:41:11 81.30, 126.80 71.86 2.02 31
5 08/24/2019 01:25:27 -81.30, 25.71 107.20 08/24/2019 01:24:52 -81.30, 25.55 107.23 2.80 35
6 08/24/2019 02:14:53 81.30,-166.53 72.84 08/24/2019 02:15:32 81.30,-166.66 72.84 2.27 39
7 08/26/2019 20:59:41 -81.30, 92.26 106.20 08/26/2019 20:59:14 -81.30, 92.14 106.23 2.03 27
8 08/26/2019 21:49:07 81.31,-100.00 73.83 08/26/2019 21:49:54 81.31,-100.12 73.84 2.07 47
9 08/29/2019 16:33:55 -81.31, 158.77 105.18 08/29/2019 16:33:36 -81.30, 158.74 105.19 0.77 19




NCC Satellite Simultaneous Nadir Overpasses (SNOs) Prediction Service
